Theta_e
322 319 318 320 320 316 318 316 316 316 317 317 317 318 327 322 328 343 316 314 322 323 333 339 341 342 342 342 342 344 342 340 341 344 343 341 340 340 338 338 338 337 339 343 344 343 342 342 341
317 317 318 319 315 318 316 315 317 316 315 317 317 320 323 321 315 316 312 312 316 316 321 327 330 338 340 340 342 342 343 341 340 340 342 342 342 340 338 338 338 336 339 339 340 340 340 339 338
318 316 319 321 317 317 317 316 315 316 317 318 319 319 314 312 311 310 309 310 311 312 314 320 323 328 336 338 339 340 341 341 340 339 340 340 341 342 340 339 338 337 339 338 337 336 336 337 336
316 318 316 315 319 316 317 315 316 316 315 314 318 314 310 306 308 308 307 306 308 308 309 312 317 321 330 336 337 338 339 340 340 339 340 340 339 339 339 340 338 337 337 338 337 336 334 334 334
316 317 317 319 318 315 315 315 316 316 315 312 316 316 311 305 304 306 307 304 304 304 305 307 311 314 318 329 335 337 337 337 336 338 339 339 339 338 339 341 338 337 336 336 337 335 334 332 330
319 315 317 318 316 315 315 315 315 313 313 311 312 315 307 302 302 304 305 303 301 301 301 303 305 308 310 315 322 333 336 336 336 335 333 333 336 337 337 339 338 337 334 335 337 336 334 327 325
318 319 318 316 316 315 317 315 312 311 308 309 307 313 306 300 300 301 301 300 299 298 298 299 300 303 305 308 313 318 328 334 336 335 334 333 332 335 337 339 339 337 331 334 336 335 333 331 334
318 317 316 316 315 318 315 315 312 311 305 306 303 304 302 299 298 298 298 297 297 296 296 296 297 299 301 303 307 311 315 325 332 335 335 334 333 331 336 337 337 332 331 333 335 335 330 333 333
317 318 317 317 316 316 311 314 311 308 306 303 302 299 298 297 297 296 296 295 295 295 294 294 295 296 297 299 303 305 309 313 320 329 332 334 334 333 333 335 335 333 332 332 335 332 332 332 332
318 319 317 315 314 311 308 307 308 309 303 303 300 298 296 296 295 294 294 293 293 293 293 293 293 294 294 296 299 301 304 308 311 314 321 327 331 334 334 336 337 337 335 334 335 333 332 332 332
318 318 316 312 311 311 307 303 302 306 302 299 299 297 295 294 293 292 292 292 292 292 291 291 292 292 293 293 296 297 300 303 306 307 310 318 325 330 334 336 337 337 337 335 335 335 331 331 331
317 310 312 309 308 311 309 303 299 299 299 298 298 296 294 293 292 291 290 290 290 291 290 290 290 291 291 292 293 294 297 300 301 306 306 310 315 319 324 332 336 337 336 334 335 335 330 329 330
314 309 306 307 306 304 301 300 298 297 296 295 296 295 294 292 291 290 289 289 289 289 289 289 289 290 290 290 292 293 294 296 297 302 303 307 309 311 316 323 329 336 336 335 336 334 330 332 330
311 308 305 304 303 305 304 301 301 296 295 295 294 294 293 291 290 289 288 288 288 288 288 288 288 288 288 289 290 291 292 293 295 298 301 303 303 304 308 316 323 331 334 334 334 335 334 332 327
309 307 305 303 302 299 303 301 296 295 295 294 293 293 292 291 290 289 288 287 287 287 287 287 287 287 287 287 289 289 291 291 294 295 298 301 299 300 302 306 315 321 334 334 333 333 332 330 326
311 312 312 300 300 298 300 301 295 293 293 293 292 291 291 290 288 287 287 287 287 286 286 286 286 286 286 287 287 288 289 290 290 293 295 296 295 298 298 301 305 311 323 332 333 332 331 330 330
306 304 306 299 297 296 297 297 294 292 292 291 290 289 289 288 287 287 286 286 287 286 285 285 285 285 285 286 286 286 288 289 289 290 292 293 293 295 295 297 301 306 318 327 329 332 332 331 328
299 297 297 297 296 294 294 294 293 291 291 288 288 287 287 287 286 286 286 285 285 286 285 284 284 285 285 285 285 285 286 287 288 288 291 290 292 292 294 296 298 302 307 322 329 330 330 330 330
294 294 294 295 294 291 293 293 295 290 288 286 286 285 285 285 285 285 285 285 285 284 284 284 283 284 284 285 284 285 285 286 286 287 287 288 289 290 292 294 294 299 302 307 319 327 330 330 330
293 292 292 293 293 291 291 291 294 290 287 286 285 284 284 284 284 284 284 284 284 284 283 283 283 283 283 284 284 284 284 285 286 286 286 286 287 288 291 292 293 295 299 302 310 322 324 327 330
291 292 290 290 290 291 291 290 291 289 287 286 285 284 284 283 283 283 284 283 283 283 283 283 283 282 283 283 283 283 283 283 284 284 285 285 286 288 288 290 292 292 295 297 299 306 320 326 328
290 290 290 290 290 291 291 290 292 288 287 285 283 283 282 282 283 283 283 283 283 282 282 282 282 282 282 282 282 282 282 283 283 284 284 284 285 286 287 289 291 291 292 294 297 300 303 315 326
290 290 289 290 290 290 290 290 290 290 287 282 280 281 281 282 282 283 283 282 282 282 282 282 281 281 281 281 281 281 281 282 282 283 283 284 284 284 285 288 289 289 291 291 293 295 300 302 315
289 289 289 290 290 291 292 292 288 287 283 280 281 281 281 280 281 282 282 282 282 282 281 282 282 281 281 281 280 281 281 281 281 282 282 283 283 283 284 286 287 288 289 290 291 293 296 298 303
288 288 295 293 291 295 290 290 284 282 280 279 281 280 279 280 280 281 282 282 282 282 281 281 281 281 281 281 280 280 280 280 280 281 281 282 282 283 283 284 286 287 287 289 290 291 293 296 300
287 288 290 285 290 288 289 283 284 279 279 280 282 280 282 280 280 281 281 281 281 281 281 281 281 281 281 281 280 280 280 280 280 280 280 281 281 282 282 284 285 285 286 288 289 290 291 295 298
287 288 287 287 288 287 288 286 282 284 283 284 280 283 281 281 281 280 281 281 281 281 281 281 281 281 281 281 280 280 280 280 280 280 280 280 281 281 282 283 283 284 285 287 288 290 291 293 297
287 287 287 288 286 287 283 285 282 281 280 280 278 278 279 281 280 281 281 281 281 281 281 281 281 281 281 280 280 280 280 280 280 280 279 280 280 281 281 282 283 283 284 286 287 289 290 291 294
287 287 287 286 284 282 285 280 278 278 278 278 278 279 278 279 279 280 281 281 280 280 280 280 280 280 280 280 280 280 280 280 280 280 279 280 280 280 281 281 282 283 284 285 287 288 289 291 292
287 286 286 285 284 285 284 285 281 279 280 279 278 281 280 280 280 280 280 280 280 280 280 280 280 280 280 280 280 280 280 280 279 279 280 280 280 280 280 281 281 282 283 284 286 287 288 289 291
Wind_Speed
10 9 5 4 1 2 4 4 3 6 5 5 7 5 20 15 4 6 23 45 42 39 32 20 14 9 4 2 1 2 5 6 7 7 8 11 11 11 10 9 9 9 9 9 9 10 10 10 11
9 9 5 3 1 3 2 4 8 8 7 4 3 6 16 7 11 5 17 41 34 33 34 33 30 20 13 8 4 3 4 6 7 8 9 10 12 12 11 11 11 10 9 9 10 10 11 11 11
9 6 2 2 4 3 3 9 9 3 4 4 3 11 6 10 16 14 25 30 31 35 36 35 34 29 16 18 11 8 5 6 7 7 10 9 10 11 11 12 12 11 11 11 11 12 12 11 10
7 3 3 1 8 6 9 8 4 1 6 15 9 12 9 25 9 22 25 32 31 34 35 32 35 32 22 15 15 11 11 9 8 8 10 12 12 12 12 12 12 12 12 13 13 13 13 12 12
5 3 3 5 0 7 9 6 4 5 7 11 14 9 9 16 24 27 26 29 33 35 34 33 32 31 30 22 16 15 14 12 13 12 12 13 14 14 14 14 13 12 14 14 14 13 14 12 13
2 2 3 4 6 8 8 10 14 15 14 8 8 6 7 19 30 29 26 30 32 35 35 32 32 32 31 28 25 16 14 15 13 13 15 15 15 16 16 16 15 14 16 16 15 15 13 13 13
2 2 5 6 2 6 7 6 11 12 16 8 10 5 5 31 29 27 27 29 30 36 37 38 36 33 31 28 28 26 19 14 15 15 16 18 18 17 17 17 17 16 18 19 17 16 15 16 14
3 1 5 4 3 5 6 6 14 11 13 9 12 8 7 23 27 26 26 30 31 35 37 39 39 38 34 30 29 27 26 18 14 13 16 18 20 20 20 19 19 19 20 20 19 18 19 17 15
2 2 4 7 6 7 10 4 9 11 14 18 9 13 14 21 24 26 29 32 34 36 37 39 40 39 38 34 33 29 28 28 22 16 14 15 18 23 22 22 20 21 22 22 21 21 21 18 18
2 2 4 8 11 9 11 8 7 3 13 10 12 15 19 22 25 27 28 29 34 36 37 39 39 39 40 36 33 31 29 28 29 25 21 18 15 16 27 25 24 22 23 24 24 25 23 21 21
2 3 5 11 11 8 9 15 10 5 10 10 10 11 18 22 23 24 25 26 28 29 34 37 38 37 38 37 32 33 31 31 29 31 29 22 19 17 15 29 28 27 25 26 26 27 26 25 21
1 8 11 7 8 4 6 7 9 14 5 8 8 12 16 18 20 23 25 26 29 29 31 34 36 35 36 34 32 31 29 29 30 29 33 29 24 21 20 16 28 31 30 29 31 32 32 27 25
4 6 8 8 10 13 16 13 7 8 7 8 10 13 12 16 20 22 24 24 27 29 31 33 33 34 35 34 33 31 30 28 29 27 28 30 27 25 25 20 19 33 28 28 30 28 31 29 25
7 9 8 7 9 4 5 5 2 7 6 8 10 10 12 16 19 21 25 26 28 28 30 31 31 32 33 33 32 31 30 30 29 27 27 29 31 29 26 26 26 21 26 28 31 29 30 30 29
7 5 6 3 1 4 5 6 8 6 5 8 9 10 10 16 19 20 21 23 27 27 29 30 30 31 32 31 30 31 28 30 27 28 25 26 32 32 30 28 25 24 25 30 23 29 28 27 29
3 6 5 3 3 3 5 4 7 4 4 6 8 10 11 16 20 22 23 22 24 26 29 30 30 30 32 31 28 29 28 27 30 28 26 26 30 29 32 31 28 29 21 24 30 28 30 27 33
4 4 3 5 3 4 1 1 7 4 3 7 8 10 11 11 19 21 23 25 24 25 27 29 30 31 31 30 28 29 27 26 28 27 26 28 29 28 32 32 29 28 21 20 31 33 34 36 29
5 5 7 7 4 5 6 8 8 6 6 8 8 10 11 12 14 21 23 23 25 26 26 28 29 29 31 29 27 29 27 26 26 28 24 28 27 30 30 30 31 30 25 15 34 40 42 41 29
5 6 8 7 10 3 5 4 8 7 8 8 8 8 9 11 17 19 22 23 23 24 26 27 29 30 30 29 31 30 29 30 28 26 28 28 28 29 29 28 33 28 29 25 18 33 29 23 29
6 7 7 3 3 8 7 9 3 10 8 8 8 7 10 13 16 23 24 24 23 23 24 25 26 28 28 26 28 28 29 27 25 25 27 26 29 29 26 28 28 27 29 28 17 10 30 16 23
6 5 5 7 13 11 13 13 16 11 10 9 9 8 9 11 14 18 24 25 26 26 27 26 26 27 27 27 27 27 29 26 24 27 28 29 28 27 28 26 26 26 25 28 27 19 10 23 27
3 7 8 11 8 4 5 5 6 12 9 9 7 7 6 8 11 17 22 24 24 24 25 24 25 26 25 27 27 26 25 27 30 28 28 29 27 26 26 26 25 26 25 26 25 25 18 18 28
5 11 13 10 9 8 8 4 2 13 8 3 2 4 6 7 10 15 22 25 26 27 26 26 24 21 24 26 27 28 26 25 29 29 29 28 26 26 26 24 26 27 26 26 26 32 25 26 19
8 10 19 11 4 3 4 2 2 1 3 2 2 4 6 7 8 17 21 24 25 27 27 26 26 25 22 22 24 25 28 31 29 28 29 27 27 27 25 24 26 26 25 27 28 27 26 27 29
7 9 3 3 0 4 6 5 4 4 3 4 0 5 5 7 8 12 18 22 26 29 30 29 25 25 25 22 22 23 26 28 29 28 25 30 28 26 27 28 27 26 28 27 27 30 27 25 28
6 3 2 4 3 6 10 4 4 3 4 4 1 4 8 8 7 10 19 23 25 27 30 30 30 29 27 27 26 24 24 24 26 27 29 27 29 28 28 27 27 29 27 27 26 26 26 23 25
4 1 3 3 8 3 4 2 3 5 5 3 5 9 8 8 8 9 20 23 26 27 28 29 30 31 30 29 29 29 26 25 26 28 28 28 27 29 28 28 28 28 26 26 25 25 27 25 27
3 1 1 2 3 5 5 5 3 1 3 4 8 8 8 6 8 12 18 22 24 27 28 30 30 30 30 30 30 29 32 29 27 27 28 29 28 28 29 29 27 27 27 26 25 24 24 24 24
2 2 2 2 2 3 5 4 5 6 4 6 8 8 6 7 8 10 19 21 26 27 28 29 29 30 30 30 31 32 33 33 31 28 28 28 29 27 28 28 28 27 27 26 25 23 25 26 24
3 3 3 1 6 6 7 10 3 5 5 5 6 9 11 12 12 18 19 25 27 28 29 30 30 29 29 30 31 33 34 34 34 32 30 30 28 28 27 27 27 27 27 28 24 23 22 25 26
Wind_Direction
344 327 307 286 347 189 266 54 33 106 117 30 17 36 103 59 359 95 327 1 8 15 28 29 3 331 313 320 321 191 193 194 196 196 186 176 176 178 178 173 171 167 160 161 172 167 169 166 161
347 329 247 273 205 238 35 100 56 46 57 329 248 43 41 76 27 36 14 354 4 8 24 25 25 28 6 316 297 256 218 214 212 204 205 195 186 189 189 184 180 178 174 172 179 181 179 168 168
321 298 293 224 237 39 94 56 48 351 96 22 26 56 45 349 41 360 358 359 4 12 18 21 19 22 17 18 346 304 267 241 235 224 216 209 209 202 202 196 196 187 184 188 186 190 194 190 185
328 212 261 270 275 41 45 64 17 168 126 28 103 79 90 40 23 355 359 7 8 14 14 17 16 16 16 9 358 343 316 272 244 238 230 225 222 222 218 211 204 205 198 199 200 193 204 209 191
236 265 273 225 109 84 54 36 328 7 64 22 356 68 75 30 12 5 9 9 12 12 13 17 14 14 15 17 359 350 341 327 291 261 245 235 230 222 222 218 214 212 205 212 210 202 206 204 194
295 188 283 272 91 101 74 9 51 41 31 15 31 57 80 22 16 6 12 13 15 13 10 13 10 10 12 13 10 3 338 326 307 289 272 253 241 231 228 221 216 216 209 214 211 203 206 200 191
234 305 255 311 107 136 69 58 39 73 27 21 319 73 103 19 13 11 15 16 14 16 13 11 11 6 9 10 6 5 359 349 316 293 284 276 260 246 236 230 225 219 213 212 216 213 211 195 190
310 310 282 258 294 86 33 63 67 52 41 85 17 28 10 359 13 14 17 18 16 15 14 10 9 8 7 8 2 3 2 352 349 315 284 277 277 260 242 240 233 221 214 211 213 211 207 201 197
314 305 268 350 29 89 30 74 77 98 87 65 73 54 18 9 16 18 17 16 14 13 12 8 7 6 5 4 1 0 1 354 352 346 340 293 280 273 253 237 230 225 218 213 212 207 205 196 199
276 287 47 28 27 74 52 56 360 109 57 47 35 32 21 18 22 20 18 14 11 9 7 6 5 3 4 3 0 358 1 357 350 349 347 341 320 294 260 244 232 224 227 221 216 210 204 197 202
70 4 106 42 22 339 114 76 23 45 53 41 29 21 20 20 22 23 18 17 12 8 6 4 2 2 2 360 356 359 357 354 352 349 349 337 331 325 290 254 237 227 225 223 218 213 205 206 206
202 41 26 51 15 12 59 91 80 57 77 49 45 40 31 23 20 20 14 12 9 8 6 4 2 1 360 357 355 354 355 354 349 352 350 348 346 334 326 306 249 227 221 215 209 209 206 210 205
304 103 75 89 77 55 71 70 93 70 69 56 42 36 41 27 22 19 13 12 8 8 4 3 2 0 357 356 353 353 351 351 350 350 351 343 340 334 326 326 314 237 218 210 201 200 202 207 212
18 95 100 81 87 66 124 103 141 48 29 43 39 38 38 30 23 17 13 7 7 3 3 360 1 359 356 354 352 350 349 345 349 347 352 348 335 338 334 324 325 305 202 212 206 197 201 208 209
134 125 133 97 3 69 126 135 69 30 16 33 30 29 31 33 23 22 11 6 3 359 358 359 357 356 356 353 350 350 348 347 346 346 346 347 346 341 334 331 331 349 233 212 206 207 202 210 210
229 215 225 78 349 176 118 121 92 47 19 52 40 35 32 26 23 15 7 5 2 359 357 353 354 354 353 350 348 345 345 346 347 344 344 344 347 343 337 332 329 325 325 238 231 226 204 202 204
172 270 269 142 89 18 12 40 121 79 46 54 47 41 31 20 17 13 4 1 358 356 356 352 351 350 349 347 345 345 342 344 345 343 348 342 346 344 340 336 332 334 315 275 240 230 206 205 203
339 341 349 338 141 62 309 270 126 101 68 62 51 38 26 16 10 5 0 0 356 351 352 351 348 347 346 345 342 342 339 340 342 343 342 341 344 342 341 338 331 334 339 346 232 232 216 203 202
313 316 289 297 24 21 277 326 164 112 75 64 56 40 20 12 1 358 355 356 352 350 349 348 345 344 345 343 343 338 336 333 334 339 335 341 341 343 339 336 337 334 330 329 322 234 241 205 215
266 279 297 340 48 319 266 258 137 120 103 92 65 40 15 359 353 351 350 351 350 346 345 342 342 340 340 339 337 330 329 326 326 331 334 338 338 340 338 337 336 336 331 324 344 294 253 247 214
343 339 5 298 324 271 274 265 232 125 120 85 54 31 16 0 342 340 341 341 341 341 343 338 338 337 335 336 334 332 328 329 331 333 331 334 335 337 336 335 333 335 327 323 325 318 276 239 221
296 13 321 309 320 287 52 286 87 147 136 80 42 19 355 339 336 333 335 334 336 335 333 332 333 333 334 335 333 332 327 324 324 324 324 326 332 331 333 333 332 332 332 325 319 320 309 298 229
276 331 287 271 268 293 256 242 336 137 129 97 31 350 338 328 332 325 329 329 328 329 330 328 327 328 330 331 330 327 323 321 318 320 321 323 326 328 329 329 331 330 329 325 319 317 314 316 298
285 293 286 243 233 270 21 187 302 115 152 155 359 349 318 328 312 324 324 326 324 325 325 325 325 324 325 326 326 323 321 321 320 319 321 321 322 322 324 325 327 325 326 325 322 316 315 310 302
353 327 342 348 258 237 76 323 228 191 112 125 342 300 312 310 306 318 326 326 322 323 325 325 322 320 321 319 320 318 316 315 315 317 317 317 317 317 318 320 320 321 319 318 316 314 315 307 311
295 334 111 266 305 286 307 245 284 136 144 200 325 307 315 307 300 321 327 322 317 321 322 324 326 323 323 320 316 313 311 309 309 310 312 309 308 309 311 311 312 314 314 314 314 308 305 302 296
345 55 67 273 240 253 227 79 320 178 218 194 331 313 294 303 322 323 324 321 322 321 325 325 324 323 322 320 317 314 309 305 303 306 307 305 305 305 306 307 308 308 308 309 308 305 307 306 298
296 8 167 187 294 299 306 311 244 230 236 300 299 288 293 309 324 322 320 324 325 328 326 324 324 321 321 320 317 313 310 307 301 301 302 302 303 303 303 303 303 304 304 305 304 302 299 297 296
203 247 248 283 168 231 300 264 202 196 207 249 279 286 309 317 321 321 325 331 331 327 324 323 322 321 319 318 316 313 311 309 305 298 298 297 298 301 301 299 300 300 300 300 298 298 298 299 297
356 301 318 220 293 319 306 296 167 173 204 232 274 335 339 334 332 324 335 335 330 326 326 323 322 321 319 318 314 310 308 308 305 301 298 299 293 297 298 297 296 297 296 295 295 295 293 292 290